Starlink 30996

operational
NORAD ID: 59023 Int'l Des: 2024-038 Owner: SPXS Country: US Constellation: starlink
LEOCIRCULAR

Starlink 30996について

説明を読み込み中...

リアルタイム位置

3D地球を読み込み中...

次回通過

高度履歴

Altitude vs Time

uPlot chart will show altitude changes over time

軌道要素

1 59023U 24038A 25353.62962234 .00001480 00000-0 63308-4 0 9995
2 59023 43.0018 119.1891 0001579 276.2786 83.7886 15.27576322103887
Epoch: Dec 19, 2025 • Age: 9 hours

現在のステータス

高度 495.0 km
速度 7.62 km/s
衛星直下点 -42.44°S, 51.61°W
打ち上げ日 Feb 25, 2024
運用期間 1.8 years
タイプ internet

技術仕様

分類 Payload
質量 730.00 kg
乾燥質量 700.00 kg
総質量 730.00 kg
長さ 0.30 m
直径 4.10 m
スパン 29.00 m
形状 Box + pan
製造者 SPXS
バスタイプ Starlink V2M
フェーズステータス In Orbit
所有者/国 SPXS/US

大規模コンステレーション

Loading constellations...